Home > Weather > Surrey > Past weeks

Flag for Canada Past Weather in Surrey, British Columbia, Canada — Yesterday and Last 2 Weeks

Now
80 °F

Warm.


Feels Like: 81 °F
Forecast: 56 / 71 °F
Wind: 7 mph from Southwest

Location: P. Meadows Coastal Station

Current Time: Jul 29, 2016 at 6:57:18 PM

Latest Report: Jul 29, 2016 at 6:00 PM


Visibility: N/A

Pressure: 29.88 "Hg

Humidity: 44%

Dew Point: 57 °F

Location of SurreyLocation

Past Weather in Surrey — Graph

°F

Surrey Temperature Yesterday

Maximum temperature yesterday: 85 °F (at 5:00 PM)
Minimum temperature yesterday: 61 °F (at 6:00 AM)
Average temperature yesterday: 73 °F

High & Low Weather Summary for the Past Weeks

 TemperatureHumidityPressure
High85 °F (Jul 28, 5:00 PM)99% (Jul 17, 5:00 AM)30.26 "Hg (Jul 17, 5:00 AM)
Low54 °F (Jul 23, 6:00 AM)38% (Jul 21, 6:00 PM)29.89 "Hg (Jul 29, 5:00 PM)
Average68 °F71%30.07 "Hg
* Reported Jul 14 5:00 PM — Jul 29 5:00 PM, Surrey, Weather by CustomWeather, © 2016

Note: Actual official high and low records may vary slightly from our data, if they occured in-between our weather recording intervals... More about our weather records

Advertising

Surrey Weather History for the Previous 24 Hours

Scroll right to see more
 ConditionsComfort  
Time TempWeatherWind HumidityBarometerVisibility
5:00 PM
Fri, Jul 29
82 °FWarm.5 mph47%29.89 "HgN/A
4:00 PM83 °FWarm.6 mph50%29.91 "HgN/A
3:00 PM83 °FWarm.6 mph47%29.92 "HgN/A
2:00 PM83 °FWarm.5 mph51%29.94 "HgN/A
1:00 PM80 °FWarm.2 mph55%29.96 "HgN/A
12:00 PM80 °FWarm.3 mph55%29.98 "HgN/A
11:00 AM77 °FWarm.3 mph58%29.99 "HgN/A
10:00 AM74 °FMild.2 mph65%30.00 "HgN/A
9:00 AM71 °FMild.1 mph70%30.01 "HgN/A
8:00 AM68 °FMild.1 mph78%30.01 "HgN/A
7:00 AM66 °FMild.1 mph85%30.01 "HgN/A
6:00 AM62 °FMild.1 mph92%30.01 "HgN/A
5:00 AM62 °FCool.No wind91%30.01 "HgN/A
4:00 AM64 °FMild.1 mph88%30.01 "HgN/A
3:00 AM64 °FMild.2 mph85%30.01 "HgN/A
2:00 AM66 °FMild.2 mph83%30.01 "HgN/A
1:00 AM66 °FMild.3 mph81%30.01 "HgN/A
12:00 AM67 °FMild.3 mph78%30.01 "HgN/A
11:00 PM
Thu, Jul 28
69 °FMild.2 mph74%30.01 "HgN/A
10:00 PM72 °FMild.2 mph65%30.01 "HgN/A
9:00 PM74 °FMild.2 mph59%30.00 "HgN/A
8:00 PM79 °FWarm.2 mph53%30.00 "HgN/A
7:00 PM82 °FWarm.6 mph51%30.01 "HgN/A
6:00 PM85 °FWarm.5 mph47%30.01 "HgN/A
Weather by CustomWeather, © 2016

See weather overviewHow to use our weather pages